Location: Potawatomi Wildlife Park
(41.2308°N, 86.1050°W)
Time: 21:36:00
(UTC-05:00)

Daily predictions for brighter satellites

Satellite Brightness Start Highest point End
(mag) Time Altitude Azimuth Time Altitude Azimuth Time Altitude Azimuth
Cosmos 2297 Rocket 2.8 17:38:01 10° N 17:43:13 35° ENE 17:48:22 10° ESE
Cosmos 389 Rocket 2.4 17:43:21 10° N 17:46:49 63° E 17:50:13 10° SSE
Cosmos 1484 Rocket 3.1 17:43:58 10° SSE 17:47:48 46° ENE 17:51:40 10° N
Cosmos 1656 4.5 17:44:14 10° SSE 17:49:05 31° ESE 17:53:54 10° NE
COSMO-SKYMED 1 4.2 17:46:26 10° NE 17:49:11 16° E 17:51:56 10° SE
Cosmos 1666 2.9 17:45:43 10° N 17:49:21 45° E 17:52:56 10° SSE
SJ 16-02 2.2 17:49:17 10° SSE 17:53:07 30° E 17:56:58 10° NE
Cosmos 2279 Rocket 4.0 17:48:09 10° S 17:54:24 82° E 18:00:41 10° N
IDEFIX/ARIANE 42P 4.2 17:50:22 10° SSW 17:55:12 40° W 18:00:04 10° NNW
Cosmos 1975 Rocket 3.5 17:51:07 10° SSW 17:55:34 68° W 18:00:04 10° N
Cosmos 1975 3.4 17:58:30 10° NNW 18:02:30 62° W 18:06:31 10° S
SMAP 3.0 17:58:24 10° SSE 18:03:00 66° ENE 18:07:37 10° N
NOSS 3-2 (A) 4.2 17:59:06 10° NNW 18:06:21 49° NE 18:14:12 10° ESE
Meteor 2-4 Rocket 3.8 18:02:08 10° SSE 18:07:22 50° E 18:12:33 10° NNE
CSL-04 Debris 4.1 18:03:44 10° SSE 18:09:06 81° ENE 18:14:32 10° NNW
NOSS 3-2 (C) 4.3 18:06:51 10° NNW 18:13:55 44° NE 18:21:36 10° ESE
DELTA 2 R/B (1) 3.7 18:09:15 10° W 18:14:49 77° S 18:20:00 12° E
BREEZE-M DEB (TANK) 2.6 18:12:10 10° WNW 18:14:49 82° SSW 18:22:38 10° SE
NOSS 5 (C) 4.5 18:12:42 10° SSW 18:16:41 71° SE 18:19:16 15° NE
ALOS 3.1 18:13:25 10° SE 18:17:18 27° ENE 18:21:12 10° NNE
Meteor 1-13 Rocket 4.2 18:11:51 10° S 18:17:25 82° E 18:23:09 10° NNE
Cosmos 1025 Rocket 4.2 18:14:25 10° SE 18:17:43 22° E 18:19:59 15° NE
Cosmos 2369 3.7 18:12:43 10° S 18:18:19 66° ESE 18:23:59 10° NNE
Cosmos 2278 3.8 18:13:19 10° S 18:18:55 63° ESE 18:24:32 10° NNE
ATLAS 2AS CENTAUR R/B 3.5 18:12:28 10° SW 18:20:10 62° NW 18:28:16 10° NNE
ATLAS 3B R/B 2.6 18:13:59 10° NW 18:20:43 87° ENE 18:27:15 10° SSE
FENGYUN 3A 4.2 18:18:34 10° SE 18:23:19 33° ENE 18:28:04 10° N
Cosmos 1536 Rocket 3.4 18:19:27 10° S 18:23:47 73° E 18:28:07 10° NNE
METEOR-M 4.2 18:19:20 10° SSE 18:24:31 54° ENE 18:29:44 10° N
Meteor 1-28 Rocket 3.2 18:21:32 10° N 18:25:18 85° WNW 18:29:05 10° SSW
Hubble Space Telescope 3.6 18:24:14 10° SSW 18:25:29 11° S 18:26:45 10° S
CZ-4 R/B 1.2 18:21:56 10° SSE 18:25:47 84° ENE 18:29:46 10° N
CSL-04 Rocket 4.2 18:20:34 10° S 18:25:56 65° WSW 18:31:26 10° NNW
Cosmos 158 Rocket 3.8 18:21:53 10° NNW 18:26:59 87° ENE 18:31:56 10° SSE
Cosmos 2084 4.4 18:27:40 10° S 18:31:18 28° ESE 18:32:46 22° E
USA 215 3.5 18:25:20 10° SE 18:31:52 74° SW 18:38:26 10° NW
Meteor 1-15 Rocket 4.5 18:28:35 10° N 18:34:22 51° ENE 18:40:05 10° SSE
Cosmos 1743 4.3 18:32:00 10° NNW 18:35:37 37° W 18:39:13 10° SSW
EO 1 Del DPAF 3.7 18:33:38 20° NE 18:35:48 38° E 18:39:21 10° SSE
Cosmos 1697 Rocket 2.8 18:31:16 10° S 18:36:44 53° ESE 18:41:05 16° NE
SKYMED 2 3.7 18:33:16 10° NNE 18:37:33 54° E 18:41:47 10° S
Cosmos 1515 4.1 18:34:25 10° SSE 18:37:58 40° E 18:39:54 23° NE
NOSS 3-4 (A) 3.6 18:35:32 10° SSW 18:41:33 55° ESE 18:45:48 21° NE
NOSS 3-4 (C) 3.6 18:35:38 10° SSW 18:41:39 54° ESE 18:45:51 21° NE
Okean 2 3.6 18:42:20 10° SSE 18:46:14 44° E 18:48:05 26° NE
Abrixas rocket 3.8 18:44:16 10° WNW 18:46:55 22° N 18:47:23 22° N
Cosmos 2082 3.9 18:43:25 10° NNW 18:49:02 76° WSW 18:54:39 10° SSE
PSLV R/B 2.9 18:47:28 10° W 18:50:39 87° S 18:51:14 56° E
Landsat 4 3.8 18:49:54 13° N 18:53:21 80° WNW 18:57:09 10° SSW
ISS -1.3 18:51:22 10° W 18:54:02 23° SW 18:56:42 10° S
Gbstr 26 Del rocket 4.4 18:46:07 10° SW 18:54:13 88° SE 18:58:45 26° NE
Cosmos 2266 Rocket 4.1 18:49:10 10° N 18:55:14 75° W 19:01:23 10° S
ERS-2 1.9 18:52:48 10° SSE 18:56:27 73° ENE 19:00:08 10° N
BREEZE-M DEB (TANK) 3.8 18:56:31 10° NW 18:59:34 59° NNE 19:02:42 27° ESE
SPOT 3 Rocket 3.4 18:54:35 10° SSE 18:59:44 70° ENE 19:04:53 10° N
Cosmos 2227 Rocket 3.2 18:55:18 10° NW 19:00:42 47° WSW 19:06:04 10° S
CENTAUR R/B 3.5 18:53:38 10° NNW 19:00:55 40° NE 19:04:34 28° E
NOSS 2-2 (E) 4.4 19:02:13 10° S 19:05:01 30° SE 19:05:01 30° SE
YAOGAN 1 3.7 19:05:13 10° S 19:09:22 45° W 19:13:32 10° NNW
Thor Agena Rocket 4.4 19:12:21 32° ESE 19:12:21 32° ESE 19:16:07 10° SSE
MOS 1 4.5 19:07:15 10° S 19:12:55 73° WSW 19:18:37 10° NNW
Cosmos 2251 Rocket 4.1 19:09:33 10° N 19:13:36 38° NE 19:13:36 38° NE
S3M 4.2 19:10:59 10° SSE 19:16:41 43° E 19:17:04 42° E
Cosmos 1980 Rocket 2.1 19:12:05 10° SSW 19:17:42 68° ESE 19:19:35 42° NE
Cosmos 494 Rocket 3.9 19:13:16 10° NNW 19:18:33 67° ENE 19:23:06 14° SSE
Cosmos 1066 Rocket 4.2 19:13:37 10° S 19:18:58 53° E 19:19:39 49° ENE
COSMO-SKYMED 1 3.6 19:21:48 12° N 19:25:33 43° WNW 19:29:40 10° SW
Cosmos 2297 Rocket 3.9 19:22:09 10° NW 19:27:10 33° WSW 19:32:10 10° SSW
Cosmos 1244 Rocket 4.4 19:23:54 10° N 19:30:05 88° W 19:36:16 10° S
Atlas Centaur 2 4.3 19:28:36 10° SW 19:30:22 12° SSW 19:32:01 10° S
Gblst 52 Del rocket 4.2 19:25:48 10° NW 19:31:31 83° NE 19:33:02 53° ESE
SJ 16-02 3.5 19:28:08 10° WSW 19:31:42 24° WNW 19:35:02 11° N
Cosmos 2344 4.2 19:34:47 10° S 19:40:34 35° SE 19:40:34 35° SE
Cosmos 2227 4.4 19:40:23 10° NNW 19:45:09 59° N 19:45:09 59° N
RESURS DK-1 3.7 19:42:02 10° SSW 19:44:18 32° SSW 19:44:18 32° SSW
Cosmos 1553 Rocket 3.9 19:43:43 10° S 19:50:08 89° E 19:52:38 41° N
SL-08 R/B 4.3 19:45:36 10° N 19:51:54 89° ENE 19:58:06 10° S
ALOS 4.0 19:50:29 10° SSW 19:54:37 31° W 19:58:46 10° NNW
SL-16 R/B 3.9 19:53:36 10° S 19:55:26 21° S 19:55:26 21° S
DELTA 2 R/B (1) 4.0 19:55:39 10° W 20:00:47 55° SSW 20:00:47 55° SSW
Cosmos 2263 Rocket 4.4 19:58:50 10° N 19:59:25 13° N 19:59:25 13° N
Cosmos 2322 Rocket 4.0 19:58:40 10° S 20:00:14 19° S 20:00:14 19° S
CENTAUR R/B 3.5 20:44:12 10° NW 20:51:52 59° WSW 20:51:52 59° WSW
Cosmos 1980 Rocket 4.4 20:58:08 10° W 21:01:25 19° WNW 21:01:25 19° WNW
